Tracking 29892 objects as of 21-Nov-2024
HD Live streaming from Space Station
objects crossing your sky now

STARLINK-3935

Track STARLINK-3935 now!
10-day predictions
STARLINK-3935 is classified as:


NORAD ID: 52549
Int'l Code: 2022-051S
Perigee: 546.5 km
Apogee: 547.3 km
Inclination: 53.2 °
Period: 95.4 minutes
Semi major axis: 6917 km
RCS: Unknown
Launch date: May 13, 2022
Source: United States (US)
Launch site: AIR FORCE WESTERN TEST RANGE (AFWTR)
Your satellite tracking list
Your tracking list is empty




NASA's NSSDC Master Catalog

Two Line Element Set (TLE):
1 52549U 22051S   24325.39806247  .00004056  00000-0  27287-3 0  9994
2 52549  53.2146  98.2952 0000582 281.9197  78.1730 15.08823601139840
Source of the keplerian elements: AFSPC